Regional Weather Roundup
Issued by NWS

Home | Current Version | Previous Version | Graphics & Text | Print | Product List | Glossary Off
Versions: 1 2 3 4 5 6 7 8 9 10 11 12 13 14 15 16 17 18 19 20 21 22 23 24 25 26 27 28 29 30 31 32 33 34 35 36 37 38 39 40 41 42 43 44 45 46 47 48 49 50

000
ASUS43 KMPX 080110
RWRMN
WEATHER ROUNDUP FOR MINNESOTA
NATIONAL WEATHER SERVICE TWIN CITIES/CHANHASSEN MN
800 PM CDT TUE JUL 07 2015


NOTE: "FAIR" INDICATES FEW OR NO CLOUDS BELOW 12,000 FEET WITH NO
SIGNIFICANT WEATHER AND/OR OBSTRUCTIONS TO VISIBILITY. N/A MEANS
CURRENT SKY AND/OR WEATHER CONDITIONS ARE NOT AVAILABLE.

MNZ060>063-068>070-080200-
   Twin Cities Metro

CITY           SKY/WX    TMP DP  RH WIND       PRES   REMARKS
TWIN CITIES    MOCLDY    69  46  43 N7        30.10S
ST PAUL        PTCLDY    69  47  45 NE9       30.10F
CRYSTAL        CLEAR     71  47  42 NE5       30.09S
BLAINE         PTCLDY    70  48  46 CALM      30.11S
LAKEVILLE      CLEAR     63  54  72 CALM      30.11R
EDEN PRAIRIE   CLEAR     70  48  45 NE5       30.09S
SOUTH ST PAUL  PTCLDY    68  47  46 NE5       30.10F
LAKE ELMO      FAIR      66  52  59 CALM      30.11F
$$
MNZ001>005-007-008-013>017-022>024-027-028-080200-
   Northwest Minnesota

CITY           SKY/WX    TMP DP  RH WIND       PRES   REMARKS
BEMIDJI        SUNNY     68  47  46 SW7       30.07S
HALLOCK        SUNNY     70  52  52 S6        30.00F
ROSEAU         SUNNY     66  52  59 SW6       30.03F
WARROAD        SUNNY     68  52  56 SW9       30.04S
THIEF RVR FALL SUNNY     66  52  59 S6        30.05F
CROOKSTON      SUNNY     70  50  49 S7        30.04F
FOSSTON        SUNNY     68  48  49 CALM      30.08S
DETROIT LAKES  SUNNY     68  45  42 SW7       30.10F
MOORHEAD       MOSUNNY   68  48  49 S7        30.07F
PARK RAPIDS    SUNNY     67  46  47 SW8       30.09S
MAHNOMEN       FAIR      67  46  46 SW7       30.08S
$$
MNZ006-009>011-018-025>026-080200-
   North Central Minnesota

CITY           SKY/WX    TMP DP  RH WIND       PRES   REMARKS
BAUDETTE       SUNNY     69  46  43 SW8       30.04S
FLAG ISLAND    MOSUNNY   68  48  49 SW12      30.02R
INTL FALLS     SUNNY     71  47  42 CALM      30.04F
WASKISH        SUNNY     68  48  49 SW3       30.07S
BIG FORK       SUNNY     66  50  55 SW6       30.08F
LONGVILLE      SUNNY     64  52  63 CALM      30.09S
GRAND RAPIDS   CLEAR     66  45  45 SW3       30.09F
CRANE LAKE     CLEAR     68  43  40 W1        30.07F
COOK           CLEAR     70  45  40 CALM      30.08S
WALKER         FAIR      67  46  47 CALM      30.08S
$$
MNZ012-019>021-037-080200-
   Northeast Minnesota

CITY           SKY/WX    TMP DP  RH WIND       PRES   REMARKS
DULUTH         PTCLDY    68  45  43 SW6       30.09S
ELY            CLEAR     66  39  37 W3        30.08S
HIBBING        CLEAR     67  44  43 CALM      30.08F
EVELETH        CLEAR     66  43  42 SW6       30.10S
DULUTH HARBOR  CLEAR     72  50  46 S9        30.08F
TWO HARBORS    CLEAR     70  54  56 SW5       30.07S
SILVER BAY     CLEAR     66  46  48 CALM      30.07S
GRAND MARAIS     N/A     52  44  74 SW7       30.07S
G MARAIS ARPRT CLEAR     57  43  58 S5        30.11R
$$
MNZ029>031-032-039>041-046>048-054>057-064-080200-
   West Central Minnesota

CITY           SKY/WX    TMP DP  RH WIND       PRES   REMARKS
FERGUS FALLS   SUNNY     68  48  49 SW6       30.08F
WHEATON        SUNNY     66  46  48 S3        30.10F
MORRIS         SUNNY     68  52  56 S5        30.10S
ALEXANDRIA     SUNNY     67  44  43 S5        30.12S
ELBOW LAKE     FAIR      65  49  55 SW5       30.09F
WADENA         SUNNY     64  50  59 W3        30.09F
GLENWOOD       SUNNY     66  50  55 S3        30.12S
APPLETON       SUNNY     70  46  43 CALM      30.10S
BENSON         SUNNY     66  46  48 CALM      30.11S
ORTONVILLE     SUNNY     68  46  45 SE3       30.09F
MADISON        SUNNY     66  50  55 SE5       30.10F
WILLMAR        FAIR      70  52  52 CALM      30.13S
$$
MNZ033>034-036-042>043-049>051-058-059-080200-
   Central Minnesota

CITY           SKY/WX    TMP DP  RH WIND       PRES   REMARKS
ST CLOUD       CLEAR     69  49  48 CALM      30.11S
SAUK CENTRE    FAIR      66  52  59 S3        30.11S
PAYNESVILLE    CLEAR     65  47  52 CALM      30.11F
AITKIN         CLEAR     66  52  59 CALM      30.09S
PINE RIVER     SUNNY     66  48  52 CALM      30.12F
BRAINERD       CLEAR     66  47  50 CALM      30.10F
STAPLES        SUNNY     66  46  48 S3        30.09F
LONG PRAIRIE   FAIR      66  46  48 S5        30.11S
LITTLE FALLS   CLEAR     68  45  42 S3        30.11S
LITCHFIELD     CLEAR     68  52  56 SE3       30.12S
BUFFALO        CLEAR     68  46  45 CALM      30.12S
MAPLE LAKE     CLEAR     68  50  51 CALM      30.11F
$$
MNZ037-044-045-052-053-080200-
   East Central Minnesota

CITY           SKY/WX    TMP DP  RH WIND       PRES   REMARKS
PRINCETON      CLEAR     70  48  46 CALM      30.11S
MORA           CLEAR     64  50  59 CALM      30.12S
CAMBRIDGE      CLEAR     70  50  49 CALM      30.09F
RUSH CITY      CLEAR     66  49  54 CALM      30.11S
MOOSE LAKE     CLEAR     64  48  55 CALM      30.08F
HINCKLEY       FAIR      68  52  56 CALM      30.11S
CLOQUET        CLEAR     66  45  45 CALM      30.10S
MCGREGOR       CLEAR     68  46  45 SW6       30.10S
$$
MNZ071>073-080-081-089-090-097-098-080200-
   Southwest Minnesota

CITY           SKY/WX    TMP DP  RH WIND       PRES   REMARKS
MONTEVIDEO     SUNNY     68  52  56 CALM      30.13S
GRANITE FALLS  SUNNY     67  47  47 CALM      30.13S
CANBY          MOSUNNY   66  50  57 SE5       30.12F
MARSHALL       MOSUNNY   66  46  48 SE5       30.10F
REDWOOD FALLS  PTCLDY    68  49  50 NE3       30.11S
OLIVIA         PTCLDY    64  45  48 CALM      30.11F
PIPESTONE      MOSUNNY   66  46  48 E3        30.12S
WINDOM         CLEAR     64  50  59 CALM      30.13S
WORTHINGTON    CLEAR     63  48  59 E6        30.13R
JACKSON        CLEAR     64  50  59 NE7       30.13S
TRACY          PTCLDY    65  52  62 E3        30.12F
SLAYTON        MOSUNNY   64  50  60 CALM      30.13F
$$
MNZ065>067-074>077-082>085-091>093-080200-
   South Central Minnesota

CITY           SKY/WX    TMP DP  RH WIND       PRES   REMARKS
MANKATO        CLEAR     66  46  48 NE7       30.11S
NEW ULM        CLEAR     66  46  48 CALM      30.12R
ST JAMES         N/A     66  52  59 NE3       30.12F
FAIRMONT       CLEAR     64  48  55 NE5       30.11S
GLENCOE        CLEAR     68  51  55 CALM      30.11S
FARIBAULT      CLEAR     66  52  59 NE2       30.11S
OWATONNA       CLEAR     64  50  59 NE3       30.11F
WASECA         CLEAR     63  48  59 NE5       30.12S
ALBERT LEA     PTCLDY    64  50  59 NE7       30.11F
$$
MNZ078>079-086>088-094>096-080200-
   Southeast Minnesota

CITY           SKY/WX    TMP DP  RH WIND       PRES   REMARKS
ROCHESTER      PTCLDY    64  49  57 NE6       30.12S
RED WING       CLEAR     68  52  56 CALM      30.09S
STANTON        PTCLDY    66  50  55 E6        30.10S
DODGE CENTER   PTCLDY    64  50  59 NE3       30.12R
WINONA         CLEAR     70  50  49 CALM      30.10S
AUSTIN         PTCLDY    66  48  52 NE5       30.11S
PRESTON        PTCLDY    63  50  63 NE3       30.12S
$$
ABBREVIATIONS USED IN REMARKS
   TC - TEMPERATURES IN CELSIUS
  WCI - WIND CHILL INDEX
   HX - HEAT INDEX
  VSB - VISIBILITY
$$



USA.gov is the U.S. government's official web portal to all federal, state and local government web resources and services.